Terug naar catalogus

STARLINK-35960

ActiefCommunicatieVLEO
NORAD 66531·PAYLOAD·🇺🇸 United States

Gelanceerd Nov 19, 2025 vanaf Cape Canaveral Space Force Station

Loading…

Volgende Passages (komende 24 uur)

TLE

VersSource: CelesTrak SupGP

Epoch: Sep 15, 2026, 04:08 UTC

1 66531C 25265R   26258.17270833 -.00021396  00000+0 -77483-3 0  2587
2 66531  43.0008 287.5110 0001742 267.0786 186.0241 15.27594134    16

Volg STARLINK-35960 in realtime met AllMySat

Download on the App Store